Change the Weather History Date:

Saturday, December 8, 2012

  Actual Average (KALS) Record (KALS)
Temperature  
Mean Temperature 14 °F 19 °F  
Max Temperature 17 °F 36 °F 61 °F (1958)
Min Temperature 12 °F 2 °F -42 °F (1978)
Degree Days  
Heating Degree Days 50 46  
Month to date heating degree days 355  
Since 1 July heating degree days 2530  
Cooling Degree Days 0 0  
Month to date cooling degree days 0  
Year to date cooling degree days 51  
Moisture  
Dew Point 14 °F    
Average Humidity 94    
Maximum Humidity 100    
Minimum Humidity 86    
Precipitation  
Precipitation 0.00 in 0.01 in 0.24 in (2003)
Month to date precipitation 0.09  
Year to date precipitation 7.05  
Snow  
Snow 0.00 in 0.20 in 4.10 in (1971)
Month to date snowfall 1.2  
Since 1 July snowfall 7.0  
Snow Depth -    
Sea Level Pressure  
Sea Level Pressure 29.91 in    
Wind  
Wind Speed 22 mph (SW)    
Max Wind Speed 30 mph    
Max Gust Speed 43 mph    
Visibility 6 miles    
Events Fog , Snow    
T = Trace of Precipitation, MM = Missing Value Source: NWS Daily Summary

Daily Weather History Graph

Daily Weather History Graph

Search for Another Location

Airport or City:

Trip Planner

Search our weather history database for the weather conditions in past years. The results will help you decide how hot, cold, wet, or windy it might be!

Date:

Astronomy

Dec. 08, 2012 Rise Set
Actual Time 7:09 AM MST 4:49 PM MST
Civil Twilight 6:40 AM MST 5:18 PM MST
Nautical Twilight 6:07 AM MST 5:50 PM MST
Astronomical Twilight 5:36 AM MST 6:22 PM MST
Moon 1:42 AM MST (12/8) 1:16 PM MST (12/8)
Length of Visible Light 10h 37m
Length of Day
9h 39m
Waning Crescent, 27% of the Moon is Illuminated
Dec 8
Waning Crescent
Dec 13
New
Dec 19
First Quarter
Dec 28
Full
Jan 4
Last Quarter

Hourly Weather History & Observations

Time (MST) Temp. Windchill Dew Point Humidity Pressure Visibility Wind Dir Wind Speed Gust Speed Precip Events Conditions
12:02 AM 17.6 °F 1.7 °F 15.8 °F 93% 29.99 in 10.0 mi SW 18.4 mph 27.6 mph N/A   Mostly Cloudy
12:20 AM 17.6 °F 1.7 °F 15.8 °F 93% 29.99 in 2.0 mi SW 18.4 mph 27.6 mph N/A   Overcast
12:40 AM 15.8 °F -2.3 °F 15.8 °F 100% 29.97 in 7.0 mi SW 23.0 mph 31.1 mph N/A   Mostly Cloudy
1:00 AM 17.6 °F 0.1 °F 15.8 °F 93% 29.97 in 1.0 mi SW 23.0 mph 32.2 mph N/A   Overcast
1:20 AM 17.6 °F -0.3 °F 15.8 °F 93% 29.97 in 1.0 mi SW 24.2 mph 32.2 mph N/A   Overcast
1:43 AM 17.6 °F 0.1 °F 15.8 °F 93% 29.97 in 0.8 mi SW 23.0 mph 33.4 mph N/A   Overcast
2:03 AM 17.6 °F 0.5 °F 15.8 °F 93% 29.96 in 0.8 mi SW 21.9 mph 34.5 mph N/A   Overcast
2:22 AM 15.8 °F -3.1 °F 15.8 °F 100% 29.96 in 1.5 mi SW 25.3 mph 31.1 mph N/A   Overcast
2:43 AM 15.8 °F -3.1 °F 14.0 °F 93% 29.95 in 2.0 mi SW 25.3 mph 31.1 mph N/A   Overcast
3:03 AM 15.8 °F -3.4 °F 14.0 °F 93% 29.95 in 10.0 mi SW 26.5 mph 29.9 mph N/A   Overcast
3:23 AM 14.0 °F -5.1 °F 14.0 °F 100% 29.94 in 10.0 mi SW 24.2 mph 29.9 mph N/A   Mostly Cloudy
3:43 AM 14.0 °F -5.1 °F 14.0 °F 100% 29.94 in 10.0 mi SW 24.2 mph 27.6 mph N/A   Scattered Clouds
4:23 AM 14.0 °F -5.5 °F 12.2 °F 93% 29.93 in 10.0 mi SW 25.3 mph 28.8 mph N/A   Clear
4:43 AM 14.0 °F -5.1 °F 12.2 °F 93% 29.92 in 10.0 mi SW 24.2 mph 29.9 mph N/A   Clear
5:03 AM 14.0 °F -5.1 °F 12.2 °F 93% 29.91 in 10.0 mi SW 24.2 mph 33.4 mph N/A   Clear
5:20 AM 14.0 °F -6.2 °F 12.2 °F 93% 29.91 in 10.0 mi SW 27.6 mph 33.4 mph N/A   Clear
5:40 AM 14.0 °F -6.2 °F 12.2 °F 93% 29.92 in 10.0 mi SW 27.6 mph 35.7 mph N/A   Clear
5:59 AM 14.0 °F -5.8 °F 12.2 °F 93% 29.92 in 10.0 mi SW 26.5 mph 33.4 mph N/A   Scattered Clouds
6:19 AM 14.0 °F -6.2 °F 14.0 °F 100% 29.92 in 4.0 mi SW 27.6 mph 33.4 mph N/A   Mostly Cloudy
6:39 AM 14.0 °F -5.1 °F 14.0 °F 100% 29.92 in 1.2 mi SW 24.2 mph 34.5 mph N/A   Overcast
7:00 AM 14.0 °F -5.5 °F 14.0 °F 100% 29.92 in 0.8 mi SW 25.3 mph 34.5 mph N/A   Overcast
7:23 AM 15.8 °F -2.7 °F 14.0 °F 93% 29.93 in 0.8 mi SW 24.2 mph 31.1 mph N/A   Overcast
7:43 AM 15.8 °F -1.1 °F 14.0 °F 93% 29.93 in 0.5 mi SW 19.6 mph 33.4 mph N/A Snow Light Snow
8:03 AM 15.8 °F -2.3 °F 14.0 °F 93% 29.93 in 0.2 mi SW 23.0 mph 33.4 mph N/A Snow Light Snow
8:23 AM 15.8 °F -2.7 °F 14.0 °F 93% 29.92 in 0.2 mi SW 24.2 mph 35.7 mph N/A Snow Light Snow
8:43 AM 15.8 °F -2.3 °F 14.0 °F 93% 29.94 in 0.2 mi SW 23.0 mph 33.4 mph N/A Snow Light Snow
9:03 AM 15.8 °F -2.3 °F 14.0 °F 93% 29.95 in 0.2 mi SW 23.0 mph 33.4 mph N/A Snow Light Snow
9:23 AM 15.8 °F -3.1 °F 14.0 °F 93% 29.93 in 0.2 mi SSW 25.3 mph 32.2 mph N/A Snow Light Snow
9:43 AM 17.6 °F -1.0 °F 14.0 °F 86% 29.92 in 0.2 mi SW 26.5 mph 36.8 mph N/A Snow Light Snow
10:03 AM 17.6 °F -0.6 °F 14.0 °F 86% 29.94 in 0.2 mi SSW 25.3 mph 33.4 mph N/A Fog Light Freezing Fog
10:23 AM 17.6 °F 0.5 °F 15.8 °F 93% 29.94 in 0.2 mi SW 21.9 mph 36.8 mph N/A Snow Light Snow
10:43 AM 17.6 °F -0.3 °F 15.8 °F 93% 29.94 in 0.2 mi SSW 24.2 mph 34.5 mph N/A Fog Light Freezing Fog
11:03 AM 17.6 °F 0.9 °F 15.8 °F 93% 29.94 in 0.8 mi SW 20.7 mph 32.2 mph N/A   Overcast
11:23 AM 17.6 °F -1.9 °F 15.8 °F 93% 29.90 in 1.0 mi SW 29.9 mph 42.6 mph N/A Snow Light Snow
11:43 AM 17.6 °F 0.9 °F 15.8 °F 93% 29.90 in 3.0 mi SW 20.7 mph 34.5 mph N/A   Overcast
12:03 PM 17.6 °F 0.1 °F 17.6 °F 100% 29.90 in 1.5 mi SW 23.0 mph 34.5 mph N/A   Overcast
12:23 PM 17.6 °F 1.7 °F 15.8 °F 93% 29.90 in 7.0 mi SW 18.4 mph 31.1 mph N/A   Overcast
12:43 PM 17.6 °F 1.7 °F 15.8 °F 93% 29.89 in 10.0 mi SW 18.4 mph 27.6 mph N/A   Overcast
1:03 PM 17.6 °F 3.2 °F 15.8 °F 93% 29.89 in 4.0 mi SSW 15.0 mph 28.8 mph N/A   Overcast
1:23 PM 17.6 °F 2.2 °F 15.8 °F 93% 29.89 in 2.0 mi SW 17.3 mph 26.5 mph N/A   Overcast
1:43 PM 17.6 °F 1.7 °F 17.6 °F 100% 29.89 in 3.0 mi SW 18.4 mph 28.8 mph N/A   Overcast
2:03 PM 17.6 °F 0.1 °F 17.6 °F 100% 29.88 in 10.0 mi SSW 23.0 mph 29.9 mph N/A   Overcast
2:23 PM 17.6 °F 3.2 °F 17.6 °F 100% 29.88 in 10.0 mi SW 15.0 mph 29.9 mph N/A   Overcast
2:43 PM 17.6 °F 0.1 °F 17.6 °F 100% 29.88 in 10.0 mi SW 23.0 mph 31.1 mph N/A   Overcast
3:03 PM 17.6 °F 1.3 °F 17.6 °F 100% 29.87 in 4.0 mi SW 19.6 mph 32.2 mph N/A Snow Light Snow
3:23 PM 17.6 °F 1.7 °F 17.6 °F 100% 29.87 in 4.0 mi SW 18.4 mph 28.8 mph N/A Snow Light Snow
3:43 PM 17.6 °F 1.3 °F 17.6 °F 100% 29.88 in 4.0 mi SW 19.6 mph 29.9 mph N/A Snow Light Snow
4:03 PM 17.6 °F 1.3 °F 17.6 °F 100% 29.89 in 4.0 mi SSW 19.6 mph 32.2 mph N/A Snow Light Snow
4:23 PM 17.6 °F 3.7 °F 17.6 °F 100% 29.88 in 7.0 mi SSW 13.8 mph 32.2 mph N/A Snow Light Snow
4:43 PM 17.6 °F 2.2 °F 17.6 °F 100% 29.87 in 5.0 mi SW 17.3 mph 31.1 mph N/A Snow Light Snow
5:03 PM 17.6 °F 0.5 °F 17.6 °F 100% 29.87 in 10.0 mi SW 21.9 mph 31.1 mph N/A Snow Light Snow
5:23 PM 17.6 °F 0.5 °F 15.8 °F 93% 29.87 in 10.0 mi SW 21.9 mph 34.5 mph N/A   Overcast
5:43 PM 17.6 °F -0.3 °F 15.8 °F 93% 29.87 in 10.0 mi SW 24.2 mph 34.5 mph N/A   Overcast
6:03 PM 17.6 °F 0.1 °F 15.8 °F 93% 29.87 in 10.0 mi SW 23.0 mph 38.0 mph N/A   Overcast
6:23 PM 17.6 °F 0.5 °F 14.0 °F 86% 29.88 in 10.0 mi SW 21.9 mph 38.0 mph N/A   Overcast
6:43 PM 15.8 °F -1.5 °F 14.0 °F 93% 29.88 in 10.0 mi SW 20.7 mph 35.7 mph N/A   Overcast
7:03 PM 15.8 °F -1.1 °F 14.0 °F 93% 29.88 in 10.0 mi SW 19.6 mph 31.1 mph N/A   Mostly Cloudy
7:23 PM 14.0 °F -3.9 °F 12.2 °F 93% 29.89 in 10.0 mi SW 20.7 mph 29.9 mph N/A   Mostly Cloudy
7:43 PM 14.0 °F -4.3 °F 12.2 °F 93% 29.88 in 10.0 mi SW 21.9 mph 32.2 mph N/A   Overcast
8:03 PM 14.0 °F -3.4 °F 12.2 °F 93% 29.88 in 10.0 mi SW 19.6 mph 29.9 mph N/A   Overcast
8:23 PM 14.0 °F -3.9 °F 12.2 °F 93% 29.87 in 10.0 mi SW 20.7 mph 28.8 mph N/A   Overcast
8:43 PM 14.0 °F -4.7 °F 12.2 °F 93% 29.87 in 10.0 mi SW 23.0 mph 28.8 mph N/A   Overcast
9:03 PM 14.0 °F -4.3 °F 10.4 °F 86% 29.88 in 10.0 mi SW 21.9 mph 29.9 mph N/A   Mostly Cloudy
9:23 PM 12.2 °F -5.8 °F 10.4 °F 92% 29.88 in 10.0 mi SW 19.6 mph 29.9 mph N/A   Overcast
9:43 PM 12.2 °F -6.7 °F 10.4 °F 92% 29.87 in 10.0 mi SW 21.9 mph 33.4 mph N/A   Overcast
10:03 PM 12.2 °F -7.1 °F 10.4 °F 92% 29.87 in 10.0 mi SW 23.0 mph 35.7 mph N/A   Mostly Cloudy
10:23 PM 12.2 °F -7.5 °F 10.4 °F 92% 29.87 in 10.0 mi SW 24.2 mph 35.7 mph N/A   Mostly Cloudy
10:43 PM 12.2 °F -7.1 °F 10.4 °F 92% 29.86 in 10.0 mi SW 23.0 mph 31.1 mph N/A   Mostly Cloudy
11:03 PM 12.2 °F -7.1 °F 10.4 °F 92% 29.86 in 10.0 mi SW 23.0 mph 31.1 mph N/A   Mostly Cloudy
11:23 PM 12.2 °F -6.7 °F 10.4 °F 92% 29.86 in 10.0 mi SW 21.9 mph 29.9 mph N/A   Scattered Clouds
11:43 PM 12.2 °F -6.7 °F 10.4 °F 92% 29.86 in 10.0 mi SW 21.9 mph 33.4 mph N/A   Mostly Cloudy